Location: Most
(50.5133°N, 13.6207°E)
Time: 04:20:54
(UTC+02:00)

UNHA 3 R/B - Pass Details

Date: 23 September 2020
Orbit: 479 x 556 km, 97.4° (Epoch: 20 October)

Event Time Altitude Azimuth Distance (km) Brightness Sun altitude
Rises 05:05:59 0° 17° (NNE) 2,616 9.4 -17.5°
Reaches altitude 10° 05:08:06 10° 22° (NNE) 1,738 8.5 -17.2°
Maximum altitude 05:11:46 52° 100° (E) 653 6.0 -16.7°
Drops below altitude 10° 05:15:30 10° 178° (S) 1,768 7.7 -16.1°
Enters shadow 05:17:14 - 182° (S) 2,481 8.4 -15.9°
